Wind_Speed
21 22 22 23 23 23 23 24 24 25 26 26 25 26 26 28 29 29 29 28 27 27 27 26 26 27 28 30 31 32 33 34 36 36 36 35 35 35 34 34 34 34
21 22 22 23 24 24 24 24 24 26 26 25 25 26 27 28 29 29 28 27 27 27 27 27 27 28 30 31 31 32 33 35 36 36 36 35 35 34 34 34 35 35
21 22 23 24 24 25 25 24 25 25 26 26 25 26 27 29 29 28 28 28 28 28 27 27 28 30 31 31 32 33 34 35 36 36 36 35 34 34 33 34 35 36
22 23 23 24 25 25 25 25 25 26 26 26 26 26 27 28 29 29 29 29 29 28 28 29 30 30 31 32 32 33 34 35 36 37 38 37 35 34 33 34 36 37
23 24 24 25 25 26 25 25 26 27 27 27 27 26 27 28 28 29 29 29 29 29 29 30 31 31 31 32 33 34 35 36 37 38 38 37 35 34 34 35 37 38
24 25 25 25 26 26 26 26 27 28 29 29 28 27 28 29 29 29 30 30 30 30 30 31 31 31 32 33 34 35 37 38 38 38 37 36 35 35 35 36 37 38
26 26 26 26 26 26 27 27 28 29 29 29 29 29 30 30 29 30 31 31 31 31 32 31 31 32 33 34 35 36 38 38 38 37 37 36 36 36 36 36 36 37
28 28 27 27 27 27 28 28 29 29 29 29 29 30 31 30 30 30 31 32 32 33 33 32 33 33 34 35 36 37 38 39 38 38 37 37 36 37 36 36 36 37
30 28 28 29 29 28 29 29 29 29 28 28 29 30 31 30 31 31 32 33 33 33 33 33 33 34 35 36 37 38 38 38 38 38 38 37 37 37 37 36 36 37
30 29 30 31 30 29 30 30 30 30 28 28 30 32 32 32 32 32 33 34 33 33 33 33 34 35 36 37 37 38 39 39 39 39 38 38 38 37 37 37 37 38
30 31 31 32 31 30 31 31 30 29 27 27 31 34 33 33 33 33 34 34 34 34 33 33 35 36 36 37 38 38 39 40 40 40 39 39 38 37 37 37 38 38
31 32 33 33 32 31 32 32 30 28 27 29 33 34 34 33 34 34 34 35 35 34 34 35 36 36 36 37 38 39 40 41 41 41 41 39 38 37 37 38 38 37
32 33 34 35 34 33 33 32 29 27 29 32 33 33 33 34 34 35 35 36 36 35 35 35 36 37 39 41 42 42 41 41 41 41 40 39 37 36 37 37 37 36
33 34 35 35 35 34 34 31 30 29 31 34 33 33 34 35 35 35 36 36 37 36 36 37 38 39 40 40 39 38 38 39 40 39 38 37 36 35 36 36 35 34
33 35 36 36 35 35 33 32 31 32 33 34 33 34 35 35 36 36 36 37 37 38 38 38 37 38 38 38 37 37 39 42 40 38 35 34 34 34 34 33 33 34
35 35 36 36 34 34 33 33 33 34 34 33 33 34 35 36 36 36 36 37 37 37 37 38 40 40 40 41 40 39 42 44 40 36 33 31 32 33 32 32 33 35
35 35 36 35 33 33 35 35 34 34 35 34 34 35 35 36 37 38 38 38 36 35 35 39 43 43 42 42 39 36 39 43 42 37 32 30 31 32 31 32 33 36
36 36 35 34 33 34 35 35 34 35 36 36 35 35 37 38 39 39 40 38 35 33 34 38 43 43 42 39 35 34 38 43 44 40 34 30 30 30 30 31 33 36
36 35 34 33 32 34 35 34 33 34 35 36 36 37 38 40 40 41 41 39 36 35 36 39 41 41 40 37 36 39 42 43 42 40 35 30 29 29 29 31 33 35
34 32 33 33 32 34 35 34 32 34 36 37 37 38 40 41 41 42 41 40 39 39 40 40 40 40 40 39 40 43 44 42 40 37 33 29 29 30 30 32 35 36
36 33 34 33 34 35 34 33 33 35 37 37 38 40 41 42 42 42 42 42 42 41 41 42 43 43 43 43 44 44 44 43 39 34 32 32 35 36 35 35 38 40
44 41 37 34 33 33 32 32 34 36 37 38 39 41 42 42 43 43 43 44 43 42 42 45 47 47 46 46 47 47 46 45 39 34 34 37 41 42 40 39 43 44
44 44 39 35 34 33 32 34 36 37 37 39 40 41 42 42 43 43 44 44 43 43 45 47 50 51 50 49 49 50 49 47 43 38 39 41 44 44 43 45 48 45
42 41 37 34 34 34 35 38 38 38 39 40 40 41 42 42 42 42 42 42 43 45 47 49 52 53 54 52 51 51 52 50 47 44 43 45 45 44 45 47 47 43
50 48 42 36 33 34 36 38 39 40 40 40 40 40 41 41 42 42 41 42 43 46 49 51 53 54 54 53 52 52 52 52 50 49 49 47 46 45 46 46 43 40
45 46 42 35 30 30 34 38 40 41 40 39 39 40 40 41 41 42 41 42 45 48 51 53 54 54 54 53 52 52 53 52 52 52 51 48 47 46 45 42 40 39
Wind_Direction
286 289 290 292 293 295 297 299 299 298 298 299 301 302 303 303 305 307 309 310 311 311 310 309 308 308 309 310 310 311 312 314 316 317 317 316 316 317 319 319 320 320
288 290 291 294 296 297 297 297 297 296 298 300 302 302 301 302 304 307 309 310 310 310 309 310 310 310 309 309 309 310 311 313 315 316 317 317 318 319 319 319 320 321
292 292 292 293 296 298 297 295 295 296 298 300 300 300 301 302 304 307 309 309 309 309 310 311 310 309 308 308 309 310 311 313 316 317 317 317 318 319 319 320 321 321
293 294 293 293 295 296 296 296 296 297 298 298 297 298 300 302 304 307 308 308 309 310 311 310 309 308 307 308 309 310 312 315 317 317 317 317 318 319 321 322 321 320
290 292 293 293 294 295 296 297 297 297 296 295 295 297 300 303 306 307 307 307 308 309 310 309 308 307 308 309 310 311 313 316 317 317 317 317 319 321 322 323 321 320
289 290 292 293 293 294 296 297 296 294 294 294 294 296 300 304 306 306 306 306 307 308 307 308 308 309 310 310 312 313 315 316 317 316 317 318 320 321 322 322 320 319
290 291 292 292 292 293 294 294 293 292 293 292 293 296 299 302 305 306 305 305 306 307 308 309 310 310 310 311 312 314 314 315 316 316 317 318 319 319 320 320 319 318
290 292 292 291 291 292 291 291 291 291 292 291 292 296 300 302 304 304 304 304 306 308 310 312 312 311 311 311 312 312 312 314 315 316 316 317 317 318 319 319 319 318
289 291 290 289 289 290 290 289 289 290 290 290 292 296 300 301 302 303 303 304 307 310 311 311 311 310 310 309 309 310 311 313 314 314 315 315 317 318 318 318 318 318
287 289 288 287 288 288 288 287 286 288 287 288 292 296 298 300 301 302 303 305 308 310 310 309 308 307 307 307 308 309 310 311 312 313 313 315 316 317 317 318 318 318
283 286 286 285 286 286 285 284 285 285 283 286 292 294 296 298 300 302 304 307 309 309 308 308 306 305 305 307 308 309 309 310 310 311 312 313 314 315 316 316 317 316
281 284 283 283 284 284 282 283 285 285 284 288 292 293 295 297 299 302 306 307 307 307 308 307 305 306 308 309 309 308 308 309 309 309 310 311 311 312 313 315 316 315
281 282 281 282 283 281 280 282 284 286 288 290 291 292 295 297 300 304 306 306 307 307 307 306 306 308 310 309 308 307 306 307 307 307 308 309 309 309 311 314 315 315
280 280 279 279 280 279 279 281 284 286 288 288 289 292 295 298 302 305 306 305 306 307 307 307 310 313 315 315 315 314 313 312 309 307 307 307 307 307 310 312 314 314
275 275 276 276 277 278 279 281 284 284 285 286 288 292 295 299 303 304 304 304 305 306 308 311 316 319 321 321 320 319 319 318 313 308 305 305 304 305 308 310 312 312
269 270 273 274 276 278 279 281 281 281 283 287 289 293 296 299 301 301 302 303 305 307 309 314 318 320 321 319 317 318 320 321 317 310 304 302 302 304 306 309 311 311
266 267 270 273 275 276 278 280 281 282 285 288 291 294 297 299 299 300 301 303 305 305 309 316 319 321 321 318 317 321 325 325 322 315 307 301 300 302 305 309 312 310
266 267 268 270 272 274 278 282 283 284 287 289 292 296 298 298 298 299 301 303 302 302 309 316 319 320 320 317 316 321 326 325 321 315 308 301 299 301 306 311 312 309
262 265 268 269 271 273 279 283 284 285 287 290 294 297 296 296 297 299 300 301 300 300 306 314 317 320 321 319 316 317 320 321 316 309 305 301 298 300 306 312 314 312
261 268 271 273 276 277 281 284 285 286 288 291 294 295 294 295 297 298 299 300 299 300 304 311 318 322 322 320 318 316 319 321 315 305 301 300 297 296 304 313 317 315
262 273 277 277 277 278 281 285 285 286 289 291 293 293 292 295 297 298 300 301 300 301 305 311 318 323 323 322 320 319 321 322 316 303 296 300 300 297 299 308 315 314
259 271 278 276 275 277 281 284 285 286 288 290 291 291 292 296 298 300 301 303 304 305 307 312 318 322 323 322 320 320 321 321 316 302 294 299 303 299 295 301 310 312
260 269 272 270 272 277 282 284 284 285 286 287 288 290 293 296 299 302 304 306 308 308 308 312 317 319 320 320 319 319 319 319 315 305 298 300 302 299 295 299 307 308
260 266 266 266 273 281 285 286 284 282 282 284 287 290 293 296 300 303 305 307 308 308 309 311 314 316 317 317 317 317 316 316 314 309 305 304 302 299 297 299 303 304
260 265 266 269 279 288 289 286 281 279 280 283 287 290 294 297 300 303 304 305 307 308 308 310 312 312 313 314 315 315 315 315 313 311 310 308 304 301 300 301 302 301
265 272 272 273 281 289 288 283 279 278 280 284 287 291 294 297 301 304 305 305 307 308 308 308 309 310 310 312 313 314 313 312 312 311 311 310 308 306 304 303 303 301
Height
5897 5896 5895 5893 5892 5891 5890 5889 5888 5887 5886 5884 5883 5882 5881 5880 5879 5878 5877 5875 5874 5872 5871 5870 5868 5867 5866 5865 5863 5862 5860 5858 5856 5855 5852 5850 5848 5846 5844 5842 5839 5838
5894 5893 5892 5891 5890 5889 5888 5887 5886 5884 5883 5882 5881 5879 5878 5877 5876 5875 5874 5872 5871 5870 5869 5867 5866 5864 5863 5862 5860 5859 5857 5855 5853 5851 5848 5846 5844 5842 5840 5838 5836 5834
5892 5891 5889 5888 5887 5886 5885 5884 5883 5882 5880 5879 5878 5877 5875 5874 5873 5872 5871 5870 5868 5867 5866 5864 5863 5862 5860 5859 5857 5855 5853 5851 5849 5846 5844 5842 5841 5839 5837 5834 5832 5830
5889 5888 5886 5885 5884 5883 5882 5881 5880 5879 5878 5876 5875 5874 5873 5871 5870 5869 5868 5867 5865 5864 5863 5862 5860 5859 5857 5856 5854 5851 5849 5847 5845 5843 5840 5838 5837 5835 5833 5830 5828 5826
5885 5884 5883 5882 5881 5880 5879 5878 5877 5876 5874 5873 5872 5871 5870 5869 5867 5866 5865 5863 5862 5861 5860 5859 5857 5856 5854 5852 5850 5848 5845 5843 5841 5839 5837 5834 5833 5831 5829 5826 5824 5822
5882 5881 5880 5879 5878 5877 5876 5875 5873 5872 5871 5870 5869 5868 5867 5866 5864 5863 5861 5860 5859 5858 5857 5855 5854 5852 5850 5848 5845 5843 5841 5840 5838 5836 5833 5831 5829 5826 5824 5822 5820 5817
5878 5877 5877 5876 5874 5873 5872 5871 5870 5869 5868 5867 5866 5865 5864 5863 5861 5860 5858 5857 5856 5854 5853 5852 5850 5849 5846 5844 5842 5840 5838 5836 5834 5832 5829 5827 5824 5822 5820 5818 5815 5813
5874 5874 5873 5872 5871 5870 5869 5868 5866 5865 5864 5863 5863 5862 5861 5859 5858 5856 5855 5853 5852 5851 5849 5848 5847 5845 5842 5840 5839 5837 5835 5832 5830 5828 5825 5823 5820 5818 5816 5814 5811 5809
5871 5871 5870 5869 5868 5867 5866 5864 5863 5862 5861 5860 5859 5858 5857 5856 5854 5852 5851 5850 5848 5847 5846 5845 5843 5841 5839 5837 5836 5834 5831 5829 5826 5824 5821 5819 5816 5814 5811 5809 5807 5805
5868 5867 5866 5865 5865 5864 5862 5861 5860 5858 5857 5856 5856 5855 5854 5852 5850 5849 5847 5846 5845 5844 5843 5841 5840 5838 5836 5834 5832 5830 5827 5825 5822 5820 5817 5814 5812 5810 5807 5805 5803 5801
5864 5863 5863 5862 5861 5860 5859 5857 5856 5855 5854 5853 5852 5851 5850 5849 5847 5845 5844 5843 5842 5841 5840 5838 5836 5835 5833 5831 5828 5826 5823 5821 5818 5816 5813 5810 5807 5805 5803 5801 5799 5796
5861 5860 5859 5858 5857 5856 5854 5853 5852 5851 5851 5850 5849 5847 5846 5845 5843 5842 5841 5839 5839 5838 5837 5835 5833 5831 5829 5827 5824 5821 5819 5816 5813 5811 5808 5805 5803 5800 5798 5797 5794 5792
5857 5856 5855 5854 5853 5852 5850 5849 5849 5848 5847 5847 5845 5844 5842 5841 5839 5839 5838 5837 5836 5835 5834 5832 5829 5827 5824 5821 5819 5816 5814 5811 5808 5805 5803 5800 5798 5796 5794 5792 5789 5787
5852 5851 5850 5849 5848 5847 5846 5846 5846 5845 5844 5842 5841 5840 5838 5837 5837 5836 5835 5834 5833 5831 5829 5827 5825 5822 5819 5816 5813 5811 5809 5806 5803 5800 5797 5795 5793 5791 5789 5787 5785 5783
5847 5846 5845 5844 5844 5844 5843 5843 5842 5840 5839 5838 5837 5836 5835 5834 5833 5833 5832 5830 5828 5826 5824 5822 5820 5817 5814 5812 5809 5806 5804 5801 5798 5794 5792 5790 5788 5786 5784 5782 5780 5779
5841 5841 5840 5840 5841 5840 5839 5839 5838 5837 5836 5835 5834 5833 5832 5831 5830 5829 5828 5826 5824 5822 5819 5816 5814 5812 5810 5808 5805 5802 5799 5796 5792 5789 5787 5785 5783 5782 5780 5778 5776 5774
5835 5835 5835 5836 5837 5836 5836 5835 5835 5834 5833 5833 5831 5830 5829 5827 5826 5824 5823 5822 5820 5818 5815 5812 5809 5807 5805 5803 5800 5798 5796 5792 5788 5785 5782 5780 5779 5778 5776 5773 5771 5770
5830 5830 5831 5832 5832 5832 5832 5832 5832 5831 5831 5829 5827 5826 5825 5823 5822 5820 5818 5817 5816 5814 5812 5809 5805 5803 5801 5799 5796 5794 5792 5789 5785 5782 5779 5777 5775 5774 5772 5770 5768 5766
5825 5827 5827 5827 5827 5827 5828 5829 5828 5828 5827 5825 5823 5821 5820 5818 5817 5815 5814 5812 5811 5810 5808 5805 5803 5800 5797 5795 5792 5790 5788 5785 5782 5779 5776 5774 5772 5770 5769 5766 5764 5762
5824 5825 5824 5823 5823 5823 5824 5825 5824 5824 5822 5820 5818 5816 5815 5814 5812 5811 5809 5808 5806 5805 5803 5800 5798 5796 5793 5790 5788 5785 5782 5780 5778 5774 5772 5770 5768 5766 5764 5762 5760 5758
5824 5821 5820 5819 5819 5818 5820 5821 5820 5819 5818 5815 5813 5811 5810 5809 5808 5806 5805 5803 5801 5799 5797 5794 5792 5790 5787 5785 5782 5780 5777 5775 5772 5770 5768 5766 5764 5762 5759 5757 5756 5754
5819 5816 5814 5815 5815 5814 5816 5817 5816 5815 5813 5810 5808 5807 5806 5805 5803 5802 5800 5798 5796 5794 5791 5788 5786 5783 5782 5779 5776 5774 5771 5769 5767 5765 5763 5761 5759 5756 5754 5752 5751 5749
5815 5812 5810 5810 5810 5811 5813 5812 5811 5809 5807 5805 5803 5802 5801 5800 5799 5797 5794 5792 5790 5788 5785 5783 5779 5777 5775 5774 5771 5768 5766 5764 5762 5760 5758 5756 5753 5751 5749 5747 5745 5743
5809 5807 5806 5807 5808 5809 5809 5807 5805 5803 5801 5800 5799 5797 5796 5796 5794 5792 5789 5787 5785 5782 5780 5778 5775 5772 5770 5768 5766 5763 5761 5758 5756 5754 5752 5750 5748 5746 5744 5741 5739 5737
5802 5802 5803 5805 5806 5806 5804 5802 5799 5798 5796 5795 5794 5793 5792 5791 5789 5787 5785 5782 5780 5778 5775 5773 5771 5768 5765 5763 5761 5758 5756 5753 5751 5748 5746 5744 5742 5740 5738 5734 5732 5730
5796 5799 5800 5802 5803 5801 5798 5796 5794 5793 5792 5791 5790 5789 5787 5785 5783 5781 5779 5777 5775 5774 5771 5769 5767 5763 5760 5758 5756 5753 5751 5748 5745 5743 5740 5738 5736 5733 5731 5727 5725 5722